Regional Weather Roundup
Issued by NWS

Home | Current Version | Previous Version | Graphics & Text | Print | Product List | Glossary On
Versions: 1 2 3 4 5 6 7 8 9 10 11 12 13 14 15 16 17 18 19 20 21 22 23 24 25 26 27 28
000
ASUS45 KCYS 221010
RWRWY

WYOMING REGIONAL WEATHER ROUNDUP
NATIONAL WEATHER SERVICE CHEYENNE WY
400 AM MDT THU JUN 22 2017

NOTE:  "FAIR" INDICATES FEW OR NO CLOUDS BELOW 12,000 FEET
WITH NO SIGNIFICANT WEATHER AND/OR OBSTRUCTIONS TO VISIBILITY.

WYZ001-221100-
YELLOWSTONE NATIONAL PARK

CITY           SKY/WX    TMP DP  RH WIND       PRES   REMARKS
LK YELLOWSTONE   N/A     43  32  65 NW3       30.17R
W YELLOWSTONE  NOT AVBL

$$
WYZ002>013-054>058-071-098>099-221100-
NORTHERN WYOMING

CITY           SKY/WX    TMP DP  RH WIND       PRES   REMARKS
JACKSON        FAIR      46  43  87 N6        30.08R
CODY           FAIR      58  25  28 NW16      30.05R
GREYBULL       FAIR      68  26  20 NW30G36   29.88R
WORLAND        FAIR      66  30  26 NW12      29.91R
SHERIDAN       FAIR      60  37  42 NW17      29.97R
BUFFALO        FAIR      62  32  32 N20G32    29.97R
GILLETTE       FAIR      62  48  60 NW13      29.89R
NEWCASTLE      FAIR      64  43  45 N3        29.82S

$$
WYZ014>020-022>026-101>103-221100-
CENTRAL WYOMING

CITY           SKY/WX    TMP DP  RH WIND       PRES   REMARKS
BIG PINEY      FAIR      51  35  54 NW5       30.09F
PINEDALE       FAIR      45  39  81 NW6       30.09F
DUBOIS         FAIR      48  34  57 NW9       30.07S
LANDER         FAIR      63  43  48 CALM      29.99R
RIVERTON       FAIR      64  35  34 N12       29.96R
CASPER         FAIR      56  50  80 CALM      29.94R
DOUGLAS        FAIR      60  50  69 W16       29.89R

$$
WYZ021-027>030-104>119-221100-
SOUTHERN WYOMING

CITY           SKY/WX    TMP DP  RH WIND       PRES   REMARKS
EVANSTON       FAIR      55  44  66 SW12      30.12F
KEMMERER         N/A     55  32  41 W5        30.13S
FORT BRIDGER   FAIR      59  41  51 W6        30.14S
ROCK SPRINGS   FAIR      59  41  51 W13       30.07F
DIXON          FAIR      52  40  62 SE3       30.10S
RAWLINS        FAIR      62  38  40 SW16      30.03S
SARATOGA       FAIR      54  37  54 SW5       30.06S
LARAMIE        FAIR      58  36  43 W13       30.04S
CHEYENNE       FAIR      69  36  29 W14       29.96R
TORRINGTON     FAIR      61  51  70 W6        29.76R
PINE BLUFFS    FAIR      63  41  45 CALM      29.87S

$$




USA.gov is the U.S. government's official web portal to all federal, state and local government web resources and services.